Home > Weather > Aspen > Past weeks

Flag for U.S.A. Weather for the Past 2 Weeks in Aspen, Colorado, U.S.A.

Now
24 °F

Clear.


Feels Like: 14 °F
Forecast: 15 / 42 °F
Wind: 9 mph from Southwest

Location: Aspen-Pitkin County Airport

Current Time: Feb 8, 2016 at 9:17:24 PM

Latest Report: Feb 8, 2016 at 7:53 PM


Visibility: 10 mi

Pressure: 30.59 "Hg (22.52 "Hg at 2411m altitude)

Humidity: 71%

Dew point: 16 °F

Location of AspenLocation

Historic Weather in Aspen — Graph

°F

Aspen Temperature Yesterday

Maximum temperature yesterday: 37 °F (at 12:53 PM)
Minimum temperature yesterday: 5 °F (at 4:53 AM)
Average temperature yesterday: 20 °F

High & Low Weather Summary for the Past Weeks

 TemperatureHumidityPressure
High50 °F (Jan 30, 1:53 PM)96% (Jan 30, 9:04 PM)30.71 "Hg (Jan 30, 9:04 PM)
Low-9 °F (Feb 4, 2:53 AM)30% (Jan 30, 1:53 PM)29.29 "Hg (Feb 1, 1:53 PM)
Average18 °F74%30.18 "Hg
* Reported Jan 24 7:02 PM — Feb 8 7:53 PM, Aspen, Weather by CustomWeather, © 2016

Note: Actual official high and low records may vary slightly from our data, if they occured in-between our weather recording intervals... More about our weather records

Advertising

Aspen Weather History for the Previous 24 Hours

 ConditionsComfort  
Time TempWeatherWind HumidityBarometerVisibility
7:53 PM
Mon, Feb 8
24 °FClear.9 mph71%30.59 "Hg10 mi
6:53 PM27 °FClear.7 mph66%30.58 "Hg10 mi
5:53 PM27 °FClear.6 mph69%30.55 "Hg10 mi
4:53 PM31 °FSunny.3 mph61%30.54 "Hg10 mi
3:53 PM39 °FSunny.7 mph46%30.49 "Hg10 mi
2:53 PM40 °FSunny.7 mph45%30.48 "Hg10 mi
1:53 PM38 °FSunny.6 mph46%30.50 "Hg10 mi
12:53 PM37 °FSunny.6 mph46%30.52 "Hg10 mi
11:53 AM35 °FSunny.No wind44%30.57 "Hg10 mi
10:53 AM29 °FSunny.No wind54%30.62 "Hg10 mi
9:53 AM28 °FSunny.No wind53%30.66 "Hg10 mi
8:53 AM20 °FSunny.No wind68%30.67 "Hg10 mi
7:53 AM15 °FSunny.7 mph74%30.66 "Hg10 mi
6:53 AM12 °FClear.5 mph77%30.68 "Hg10 mi
5:53 AM14 °FClear.9 mph73%30.65 "Hg10 mi
4:53 AM11 °FClear.9 mph77%30.63 "Hg10 mi
3:53 AM12 °FClear.9 mph73%30.57 "Hg10 mi
2:53 AM12 °FClear.7 mph77%30.57 "Hg10 mi
1:53 AM13 °FPassing clouds.6 mph77%30.56 "Hg10 mi
12:53 AM14 °FClear.8 mph73%30.52 "Hg10 mi
11:53 PM
Sun, Feb 7
14 °FClear.No wind73%30.55 "Hg10 mi
10:53 PM16 °FClear.8 mph71%30.55 "Hg10 mi
9:53 PM14 °FClear.7 mph77%30.60 "Hg10 mi
Weather by CustomWeather, © 2016

See weather overviewHow to use our weather pages